Regional Weather Roundup
Issued by NWS Sioux Falls, SD

Home | Current Version | Previous Version | Text Only | Print | Product List | Glossary On
Versions: 1 2 3 4 5 6 7 8 9 10 11 12 13 14 15 16 17 18 19 20 21 22 23 24 25 26 27 28 29 30 31 32 33 34 35 36 37 38 39 40 41 42 43 44 45 46 47 48 49 50
499
ASUS43 KFSD 192210
RWRFSD

WEATHER ROUNDUP FOR SE SOUTH DAKOTA/SW MINNESOTA/NW IOWA
NATIONAL WEATHER SERVICE SIOUX FALLS SD
500 PM CDT SAT AUG 19 2017

NOTE: "FAIR" INDICATES FEW OR NO CLOUDS BELOW 12,000 FEET WITH NO
SIGNIFICANT WEATHER AND OR OBSTRUCTIONS TO VISIBILITY.


SDZ038>040-050-052>070-192300-
SOUTHEAST SOUTH DAKOTA

CITY           SKY/WX    TMP DP  RH WIND       PRES   REMARKS
BROOKINGS      SUNNY     78  63  59 SE15      29.86F
CHAMBERLAIN    SUNNY     89  67  48 SE16      29.79S
HURON          SUNNY     82  62  50 S16G25    29.80F
MADISON        FAIR      77  64  65 SE15      29.86F
MITCHELL       SUNNY     83  60  45 S18G24    29.82S
SIOUX FALLS    MOSUNNY   80  63  55 S17       29.86F
WINNER         FAIR      90  65  43 SE16      29.78F
YANKTON        SUNNY     83  65  54 SE16G23   29.83F
$$

MNZ071-072-080-081-089-090-097-098-192300-
SOUTHWEST MINNESOTA

CITY           SKY/WX    TMP DP  RH WIND       PRES   REMARKS
FAIRMONT       SUNNY     78  65  63 S10       29.92F
JACKSON        SUNNY     77  61  57 S3        29.92F
LUVERNE        SUNNY     79  61  53 SE9       29.89F
MARSHALL       SUNNY     80  62  54 S14       29.87F
MONTEVIDEO     SUNNY     82  64  54 S12       29.86F
PIPESTONE      SUNNY     79  63  57 S10G16    29.89F
REDWOOD FALLS  SUNNY     79  60  52 S13       29.87F
TRACY          SUNNY     80  65  61 S7        29.89F
WINDOM         SUNNY     79  61  53 S7        29.91F
WORTHINGTON    SUNNY     78  63  59 SE10      29.91F
$$

IAZ001>003-012>014-020>022-031-032-NEZ013-014-SDZ071-192300-
NORTHWEST IOWA

CITY           SKY/WX    TMP DP  RH WIND       PRES   REMARKS
CHEROKEE       SUNNY     82  63  53 SE9       29.90F
DENISON        SUNNY     81  66  61 VRB6G12   29.92F
ESTHERVILLE    MOSUNNY   77  67  71 SE8       29.91F
LE MARS        SUNNY     82  64  54 SE13      29.88F
ORANGE CITY    SUNNY     82  66  57 SE9       29.90F
SHELDON        SUNNY     81  64  57 S9        29.89F
SIOUX CITY     SUNNY     82  66  58 S10       29.87F
SPENCER        SUNNY     81  62  52 S10       29.91F
STORM LAKE     SUNNY     79  64  61 S8        29.92F
$$

ABBREVIATIONS USED IN REMARKS
   TC - TEMPERATURE IN CELSIUS
  WCI - WIND CHILL INDEX
   HX - HEAT INDEX
  VSB - VISIBILITY





USA.gov is the U.S. government's official web portal to all federal, state and local government web resources and services.